Home > Weather > Tonk > Past weeks

Flag for India Past Weather in Tonk, Rajasthan, India — Yesterday and Last 2 Weeks

Now
88 °F

Passing clouds.


Feels Like: 89 °F
Forecast: 83 / 108 °F
Wind: 8 mph from East

Location: Jaipur / Sanganer

Current Time: May 25, 2016 at 3:19:06 AM

Latest Report: May 25, 2016 at 2:30 AM


Visibility: 2 mi

Pressure: 29.59 "Hg

Humidity: 46%

Dew Point: 64 °F

Location of TonkLocation

Past Weather in Tonk — Graph

°F

Tonk Temperature Yesterday

Maximum temperature yesterday: 102 °F (at 3:00 PM)
Minimum temperature yesterday: 77 °F (at 12:00 AM)
Average temperature yesterday: 91 °F

High & Low Weather Summary for the Past Weeks

 TemperatureHumidityPressure
High115 °F (May 19, 2:30 PM)74% (May 24, 1:00 AM)29.86 "Hg (May 24, 1:00 AM)
Low77 °F (May 23, 11:00 PM)5% (May 19, 4:30 PM)29.42 "Hg (May 20, 3:30 PM)
Average97 °F29%29.61 "Hg
* Reported May 10 3:00 AM — May 25 2:00 AM, Tonk, Weather by CustomWeather, © 2016

Note: Actual official high and low records may vary slightly from our data, if they occured in-between our weather recording intervals... More about our weather records

Advertising

Tonk Weather History for the Previous 24 Hours

Scroll right to see more
 ConditionsComfort  
Time TempWeatherWind HumidityBarometerVisibility
2:00 AM
Wed, May 25
88 °FPassing clouds.9 mph46%29.59 "Hg2 mi
1:00 AM95 °FPassing clouds.6 mph34%29.59 "Hg2 mi
12:00 AM95 °FPassing clouds.6 mph32%29.59 "Hg2 mi
11:30 PM
Tue, May 24
97 °FPassing clouds.10 mph28%29.59 "Hg2 mi
11:00 PM97 °FPassing clouds.12 mph27%29.59 "Hg2 mi
10:00 PM99 °FHaze.13 mph25%29.56 "Hg2 mi
9:00 PM99 °FHaze.13 mph25%29.56 "Hg2 mi
8:30 PM100 °FHaze.13 mph22%29.56 "Hg2 mi
8:00 PM100 °FHaze.14 mph22%29.53 "Hg2 mi
7:30 PM100 °FHaze.10 mph21%29.53 "Hg2 mi
7:00 PM100 °FHaze.12 mph21%29.53 "Hg2 mi
6:30 PM102 °FHaze.15 mph20%29.53 "Hg2 mi
6:00 PM102 °FHaze.14 mph21%29.53 "Hg2 mi
5:30 PM102 °FHaze.17 mph20%29.53 "Hg2 mi
5:00 PM102 °FHaze.14 mph21%29.53 "Hg2 mi
4:30 PM102 °FHaze.16 mph23%29.53 "Hg2 mi
4:00 PM102 °FHaze.15 mph24%29.53 "Hg2 mi
3:00 PM102 °FHaze.14 mph26%29.56 "Hg2 mi
2:30 PM100 °FHaze.9 mph27%29.56 "Hg2 mi
2:00 PM100 °FHaze.8 mph27%29.59 "Hg2 mi
1:30 PM99 °FHaze.9 mph29%29.62 "Hg1 mi
1:00 PM97 °FDuststorm.9 mph30%29.62 "Hg1 mi
12:30 PM97 °FDuststorm.13 mph30%29.65 "Hg2 mi
12:00 PM95 °FHaze.15 mph32%29.65 "Hg2 mi
11:00 AM93 °FHaze.17 mph36%29.65 "Hg2 mi
10:30 AM91 °FHaze.15 mph38%29.68 "Hg2 mi
10:00 AM90 °FHaze.16 mph43%29.68 "Hg2 mi
9:30 AM88 °FHaze.14 mph46%29.65 "Hg2 mi
9:00 AM86 °FHaze.13 mph49%29.68 "Hg2 mi
8:30 AM84 °FHaze.13 mph51%29.68 "Hg2 mi
8:00 AM82 °FHaze.13 mph55%29.68 "Hg2 mi
7:30 AM81 °FScattered clouds.12 mph58%29.68 "Hg2 mi
7:00 AM81 °FScattered clouds.12 mph58%29.68 "Hg2 mi
6:30 AM79 °FScattered clouds.12 mph61%29.68 "Hg2 mi
6:00 AM79 °FPassing clouds.10 mph61%29.65 "Hg2 mi
5:30 AM79 °FPassing clouds.8 mph61%29.65 "Hg2 mi
5:00 AM79 °FPassing clouds.7 mph61%29.68 "Hg2 mi
4:00 AM79 °FPassing clouds.2 mph61%29.65 "Hg2 mi
3:00 AM77 °FPassing clouds.8 mph74%29.62 "Hg2 mi
Weather by CustomWeather, © 2016

See weather overviewHow to use our weather pages